Weather in Galle

Sri Lanka     6°02′20″N   80°12′57″E
temp.,
°C
wind,
m/s
gust,
m/s
humid.,
%
clouds,
%
prec.,
mm/h
press.,
hPa
HPBL,
m
25 january, mon
mon2523:30+24e4784100 0.7 1012342
02:30+23e4586100 0.0 1011222
05:30+23nne238994 0.0 1011151
08:30+25nne238139 0.0 1013342
11:30+28w337055 0.1 1013768
14:30+27wsw337427 0.1 1010635
17:30+26wsw237820 0.1 1010511
20:30+25sw228069 0.3 1012324
26 january, tue
tue2623:30+25ssw238284 0.3 1012409
02:30+24sse2387100 0.0 1010371
05:30+23e2291100 0.0 1010145
08:30+24ene2387100 0.1 1013192
11:30+27s227273 0.3 1012634
14:30+26ssw337379 0.1 1009497
17:30+26wsw227683 0.2 1009340
20:30+25w238093 0.1 1011265
27 january, wed
wed2723:30+25sse237797 0.1 1011479
02:30+24s3480100 0.0 1009461
05:30+24se1281100 0.0 1009394
08:30+25ne1276100 0.0 1011254
11:30+27wsw226572 0.0 1011801
14:30+27w436970 0.0 1008625
17:30+26wnw347583 0.0 1009425
20:30+25wnw347682 0.0 1011455
28 january, thu
thu2823:30+25w237891 0.0 1012509
02:30+24nne1283100 0.1 1010155
05:30+23ne1187100 0.1 1010122
08:30+25ene2280100 0.0 1012206
11:30+28sse2366100 0.0 1012745
14:30+28sse457091 0.0 1009859
17:30+27wnw237396 0.0 1009507
20:30+26w3478100 0.0 1011329
29 january, fri
fri2923:30+26sw2380100 0.0 1012370
02:30+25w118289 0.4 1010161
05:30+24ene128795 1.9 101091
08:30+26e2280100 0.0 1012195
11:30+29s2268100 0.0 1011695
14:30+28sw337296 1.0 1009640
17:30+27w237696 2.1 1009648
20:30+26nw2383100 4.1 1012309